DEMKM EDDK-EDDK

Flight info

Callsign DEMKM
Flight time 0h 39m
Altitude 2100
Route DCT
Aircraft C172/L-S/G

Departure

Time 2026-05-06 17:57
Airport Cologne Bonn Airport (EDDK)

Arrival

Time 2026-05-06 18:37
Airport Cologne Bonn Airport (EDDK)
Time Latitude Longitude Altitude Speed Heading
2026-05-06 17:46 50.87317 7.12226 227 ft 0 kts 165°
2026-05-06 17:50 50.87297 7.12235 227 ft 7 kts 158°
2026-05-06 17:51 50.87277 7.12291 227 ft 6 kts 156°
2026-05-06 17:51 50.87216 7.12266 227 ft 11 kts 195°
2026-05-06 17:51 50.87150 7.12227 228 ft 9 kts 214°
2026-05-06 17:51 50.87134 7.12209 228 ft 0 kts 224°
2026-05-06 17:53 50.87134 7.12208 228 ft 1 kts 225°
2026-05-06 17:54 50.87059 7.12141 230 ft 16 kts 168°
2026-05-06 17:54 50.86967 7.12257 229 ft 25 kts 137°
2026-05-06 17:54 50.86780 7.12528 232 ft 39 kts 137°
2026-05-06 17:54 50.86607 7.12778 238 ft 29 kts 137°
2026-05-06 17:55 50.86440 7.13020 243 ft 37 kts 137°
2026-05-06 17:55 50.86226 7.13330 247 ft 46 kts 139°
2026-05-06 17:55 50.85986 7.13676 259 ft 43 kts 137°
2026-05-06 17:55 50.85859 7.13843 263 ft 14 kts 66°
2026-05-06 17:56 50.85884 7.13833 263 ft 0 kts 315°
2026-05-06 17:56 50.85891 7.13822 263 ft 13 kts 312°
2026-05-06 17:56 50.86112 7.13496 253 ft 71 kts 317°
2026-05-06 17:56 50.86530 7.12901 417 ft 83 kts 317°
2026-05-06 17:57 50.86959 7.12267 643 ft 87 kts 316°
2026-05-06 17:57 50.87305 7.11544 856 ft 90 kts 294°
2026-05-06 17:57 50.87520 7.10615 1100 ft 87 kts 288°
2026-05-06 17:57 50.87722 7.09691 1326 ft 86 kts 290°
2026-05-06 17:58 50.87935 7.08790 1512 ft 94 kts 291°
2026-05-06 17:58 50.88189 7.07783 1665 ft 101 kts 291°
2026-05-06 17:58 50.88441 7.06683 1798 ft 107 kts 289°
2026-05-06 17:58 50.88677 7.05517 1913 ft 110 kts 290°
2026-05-06 17:59 50.88956 7.04383 2007 ft 110 kts 292°
2026-05-06 17:59 50.89233 7.03306 1954 ft 106 kts 293°
2026-05-06 17:59 50.89508 7.02230 1956 ft 103 kts 292°
2026-05-06 17:59 50.89780 7.01184 1948 ft 102 kts 292°
2026-05-06 18:00 50.90032 7.00168 2025 ft 99 kts 292°
2026-05-06 18:00 50.90326 6.99203 2099 ft 96 kts 303°
2026-05-06 18:00 50.90858 6.98547 2127 ft 100 kts 328°
2026-05-06 18:00 50.91469 6.97981 2116 ft 105 kts 330°
2026-05-06 18:01 50.92106 6.97421 2135 ft 105 kts 329°
2026-05-06 18:01 50.92732 6.96818 2138 ft 105 kts 329°
2026-05-06 18:01 50.93357 6.96215 2137 ft 105 kts 328°
2026-05-06 18:01 50.93982 6.95613 2138 ft 105 kts 328°
2026-05-06 18:02 50.94608 6.95011 2137 ft 105 kts 328°
2026-05-06 18:02 50.95232 6.94408 2138 ft 105 kts 328°
2026-05-06 18:02 50.95859 6.93805 2139 ft 106 kts 328°
2026-05-06 18:02 50.96490 6.93196 2137 ft 106 kts 328°
2026-05-06 18:03 50.97117 6.92590 2136 ft 105 kts 328°
2026-05-06 18:03 50.97743 6.91985 2137 ft 105 kts 328°
2026-05-06 18:03 50.98370 6.91378 2137 ft 106 kts 328°
2026-05-06 18:03 50.99000 6.90771 2138 ft 106 kts 328°
2026-05-06 18:04 50.99632 6.90158 2138 ft 106 kts 328°
2026-05-06 18:04 51.00259 6.89551 2138 ft 106 kts 328°
2026-05-06 18:04 51.00887 6.88944 2137 ft 106 kts 328°
2026-05-06 18:04 51.01517 6.88334 2136 ft 106 kts 328°
2026-05-06 18:05 51.02143 6.87729 2139 ft 105 kts 328°
2026-05-06 18:05 51.02768 6.87123 2138 ft 105 kts 328°
2026-05-06 18:05 51.03391 6.86520 2138 ft 105 kts 328°
2026-05-06 18:05 51.04015 6.85915 2138 ft 105 kts 328°
2026-05-06 18:06 51.04643 6.85307 2139 ft 106 kts 328°
2026-05-06 18:06 51.05268 6.84703 2138 ft 105 kts 328°
2026-05-06 18:06 51.05866 6.84129 2115 ft 90 kts 328°
2026-05-06 18:06 51.06380 6.83627 2137 ft 87 kts 328°
2026-05-06 18:07 51.06906 6.83120 2141 ft 89 kts 328°
2026-05-06 18:07 51.07441 6.82606 2144 ft 90 kts 328°
2026-05-06 18:07 51.07993 6.82128 2145 ft 91 kts 339°
2026-05-06 18:07 51.08588 6.81767 2150 ft 92 kts 338°
2026-05-06 18:08 51.09188 6.81399 2151 ft 92 kts 338°
2026-05-06 18:08 51.09806 6.81101 2152 ft 93 kts 343°
2026-05-06 18:08 51.10439 6.80821 2153 ft 98 kts 344°
2026-05-06 18:08 51.11125 6.80523 2156 ft 105 kts 344°
2026-05-06 18:09 51.11846 6.80210 2153 ft 109 kts 344°
2026-05-06 18:09 51.12581 6.79890 2154 ft 110 kts 344°
2026-05-06 18:09 51.13325 6.79566 2155 ft 111 kts 344°
2026-05-06 18:09 51.14072 6.79242 2153 ft 112 kts 344°
2026-05-06 18:10 51.14820 6.78916 2153 ft 111 kts 344°
2026-05-06 18:10 51.15566 6.78591 2154 ft 111 kts 344°
2026-05-06 18:10 51.16314 6.78282 2152 ft 111 kts 346°
2026-05-06 18:10 51.17066 6.77998 2153 ft 111 kts 346°
2026-05-06 18:11 51.17822 6.77714 2154 ft 112 kts 346°
2026-05-06 18:11 51.18579 6.77428 2153 ft 112 kts 346°
2026-05-06 18:11 51.19338 6.77141 2154 ft 112 kts 346°
2026-05-06 18:11 51.20058 6.76866 1992 ft 97 kts 346°
2026-05-06 18:12 51.20679 6.76638 1827 ft 93 kts 345°
2026-05-06 18:12 51.21307 6.76381 1688 ft 95 kts 344°
2026-05-06 18:12 51.21959 6.76088 1599 ft 100 kts 344°
2026-05-06 18:12 51.22639 6.75769 1539 ft 103 kts 340°
2026-05-06 18:13 51.23297 6.75364 1510 ft 100 kts 336°
2026-05-06 18:13 51.23930 6.74910 1485 ft 100 kts 335°
2026-05-06 18:13 51.24578 6.74435 1448 ft 105 kts 334°
2026-05-06 18:13 51.25233 6.73911 1290 ft 107 kts 333°
2026-05-06 18:14 51.25908 6.73424 1148 ft 100 kts 336°
2026-05-06 18:14 51.26555 6.73052 1017 ft 99 kts 352°
2026-05-06 18:14 51.27154 6.73393 806 ft 90 kts 50°
2026-05-06 18:14 51.27501 6.74209 580 ft 85 kts 54°
2026-05-06 18:15 51.27851 6.74968 364 ft 84 kts 52°
2026-05-06 18:15 51.28198 6.75699 189 ft 79 kts 53°
2026-05-06 18:15 51.28511 6.76355 124 ft 76 kts 53°
2026-05-06 18:15 51.28868 6.77081 332 ft 82 kts 51°
2026-05-06 18:16 51.29122 6.77897 562 ft 88 kts 85°
2026-05-06 18:16 51.28802 6.78641 797 ft 87 kts 151°
2026-05-06 18:16 51.28305 6.79183 1043 ft 87 kts 143°
2026-05-06 18:16 51.27795 6.79500 1293 ft 82 kts 212°
2026-05-06 18:17 51.27274 6.79114 1449 ft 92 kts 180°
2026-05-06 18:17 51.26612 6.79215 1571 ft 99 kts 206°
2026-05-06 18:17 51.26034 6.78628 1716 ft 102 kts 211°
2026-05-06 18:17 51.25422 6.78035 1846 ft 104 kts 213°
2026-05-06 18:18 51.24804 6.77430 1976 ft 105 kts 213°
2026-05-06 18:18 51.24179 6.76820 2101 ft 105 kts 213°
2026-05-06 18:18 51.23538 6.76193 2144 ft 112 kts 213°
2026-05-06 18:18 51.22860 6.75526 2150 ft 116 kts 213°
2026-05-06 18:19 51.22169 6.74846 2153 ft 117 kts 213°
2026-05-06 18:19 51.21471 6.74160 2155 ft 118 kts 212°
2026-05-06 18:19 51.20674 6.74054 2137 ft 121 kts 159°
2026-05-06 18:19 51.19906 6.74585 2145 ft 120 kts 159°
2026-05-06 18:20 51.19136 6.75112 2146 ft 121 kts 158°
2026-05-06 18:20 51.18366 6.75642 2145 ft 121 kts 158°
2026-05-06 18:20 51.17596 6.76171 2145 ft 120 kts 158°
2026-05-06 18:20 51.16827 6.76700 2144 ft 120 kts 158°
2026-05-06 18:21 51.16060 6.77230 2140 ft 122 kts 158°
2026-05-06 18:21 51.15265 6.77774 2139 ft 126 kts 158°
2026-05-06 18:21 51.14731 6.78140 2140 ft 127 kts 158°
2026-05-06 18:21 51.13641 6.78882 2141 ft 127 kts 158°
2026-05-06 18:22 51.13102 6.79250 2141 ft 127 kts 158°
2026-05-06 18:22 51.12286 6.79808 2141 ft 128 kts 158°
2026-05-06 18:22 51.11469 6.80364 2140 ft 128 kts 158°
2026-05-06 18:22 51.10650 6.80919 2141 ft 128 kts 158°
2026-05-06 18:23 51.09838 6.81488 2139 ft 128 kts 155°
2026-05-06 18:23 51.09040 6.82110 2139 ft 128 kts 155°
2026-05-06 18:23 51.08242 6.82733 2140 ft 128 kts 155°
2026-05-06 18:23 51.07442 6.83356 2139 ft 128 kts 155°
2026-05-06 18:24 51.06643 6.83978 2139 ft 128 kts 155°
2026-05-06 18:24 51.05845 6.84600 2137 ft 127 kts 155°
2026-05-06 18:24 51.05050 6.85217 2136 ft 127 kts 155°
2026-05-06 18:24 51.04261 6.85833 2137 ft 126 kts 155°
2026-05-06 18:25 51.03473 6.86446 2138 ft 126 kts 155°
2026-05-06 18:25 51.02684 6.87060 2137 ft 126 kts 155°
2026-05-06 18:25 51.01896 6.87673 2135 ft 127 kts 155°
2026-05-06 18:25 51.01107 6.88288 2139 ft 126 kts 155°
2026-05-06 18:26 51.00318 6.88902 2139 ft 126 kts 155°
2026-05-06 18:26 50.99527 6.89516 2139 ft 126 kts 155°
2026-05-06 18:26 50.98738 6.90129 2138 ft 126 kts 155°
2026-05-06 18:26 50.97950 6.90742 2138 ft 126 kts 155°
2026-05-06 18:27 50.97160 6.91356 2138 ft 126 kts 155°
2026-05-06 18:27 50.96383 6.92001 2135 ft 127 kts 149°
2026-05-06 18:27 50.95647 6.92762 2138 ft 126 kts 148°
2026-05-06 18:27 50.94910 6.93524 2138 ft 126 kts 148°
2026-05-06 18:28 50.94173 6.94285 2139 ft 126 kts 148°
2026-05-06 18:28 50.93435 6.95046 2138 ft 127 kts 148°
2026-05-06 18:28 50.92697 6.95805 2137 ft 126 kts 148°
2026-05-06 18:28 50.91958 6.96562 2137 ft 126 kts 148°
2026-05-06 18:29 50.91222 6.97328 2137 ft 126 kts 148°
2026-05-06 18:29 50.90484 6.98089 2138 ft 127 kts 148°
2026-05-06 18:29 50.89755 6.98839 2137 ft 127 kts 148°
2026-05-06 18:29 50.89016 6.99601 2138 ft 127 kts 148°
2026-05-06 18:30 50.88414 7.00612 2111 ft 128 kts 125°
2026-05-06 18:30 50.88005 7.01733 2005 ft 107 kts 118°
2026-05-06 18:30 50.87643 7.02758 1771 ft 110 kts 121°
2026-05-06 18:30 50.87236 7.03729 1677 ft 103 kts 129°
2026-05-06 18:31 50.86809 7.04591 1638 ft 95 kts 122°
2026-05-06 18:31 50.86495 7.05541 1591 ft 101 kts 114°
2026-05-06 18:31 50.86231 7.06586 1540 ft 103 kts 112°
2026-05-06 18:31 50.85995 7.07665 1449 ft 106 kts 107°
2026-05-06 18:32 50.85728 7.08733 1402 ft 103 kts 118°
2026-05-06 18:32 50.85400 7.09735 1367 ft 100 kts 122°
2026-05-06 18:32 50.85027 7.10661 1400 ft 100 kts 125°
2026-05-06 18:32 50.84577 7.11479 1459 ft 98 kts 138°
2026-05-06 18:33 50.84053 7.12163 1510 ft 98 kts 153°
2026-05-06 18:33 50.83450 7.12737 1507 ft 102 kts 148°
2026-05-06 18:33 50.82877 7.13380 1556 ft 100 kts 145°
2026-05-06 18:33 50.82314 7.14047 1569 ft 102 kts 145°
2026-05-06 18:34 50.81733 7.14722 1583 ft 106 kts 144°
2026-05-06 18:34 50.81401 7.15673 1640 ft 101 kts 83°
2026-05-06 18:34 50.81793 7.16549 1617 ft 101 kts 49°
2026-05-06 18:34 50.82261 7.17399 1590 ft 103 kts 49°
2026-05-06 18:35 50.82820 7.17976 1546 ft 93 kts 352°
2026-05-06 18:35 50.83395 7.17393 1303 ft 104 kts 316°
2026-05-06 18:35 50.83938 7.16616 1153 ft 107 kts 319°
2026-05-06 18:35 50.84495 7.15819 937 ft 107 kts 317°
2026-05-06 18:36 50.85019 7.15062 691 ft 96 kts 317°
2026-05-06 18:36 50.85507 7.14363 494 ft 94 kts 318°
2026-05-06 18:36 50.85980 7.13688 338 ft 84 kts 317°
2026-05-06 18:36 50.86361 7.13136 246 ft 62 kts 317°
2026-05-06 18:37 50.86628 7.12753 237 ft 43 kts 318°
2026-05-06 18:37 50.86749 7.12639 234 ft 8 kts 10°
2026-05-06 18:37 50.86791 7.12670 233 ft 4 kts 50°
2026-05-06 18:37 50.86805 7.12695 233 ft 2 kts 48°
2026-05-06 18:38 50.86807 7.12698 233 ft 0 kts 51°
2026-05-06 18:38 50.86810 7.12704 233 ft 5 kts 53°
2026-05-06 18:38 50.86872 7.12741 233 ft 11 kts 339°
2026-05-06 18:38 50.86929 7.12664 231 ft 12 kts 317°
2026-05-06 18:39 50.86993 7.12572 229 ft 17 kts 315°
2026-05-06 18:39 50.87099 7.12419 227 ft 21 kts 318°
2026-05-06 18:39 50.87203 7.12286 227 ft 17 kts 346°
2026-05-06 18:40 50.87258 7.12380 227 ft 5 kts 137°
2026-05-06 18:40 50.87238 7.12391 227 ft 0 kts 181°